K0JSC-13 Weather Reports


Display with metric or nautical units.
time (UTC)temp
F
wind
direction
speed
MPH
gust
MPH
rain 1hr
in
rain 24hr
in
rain mn
in
humidity
%
barometer
mb
20260831010004 75 76 2.0 5.0 0.00 0.00 0.00 45 990.3
20260831005403 76 77 2.0 5.0 0.00 0.00 0.00 45 990.2
20260831004503 76 77 1.0 7.0 0.00 0.00 0.00 44 990.0
20260831003603 77 86 2.0 7.0 0.00 0.00 0.00 45 990.1
20260831002703 77 79 3.0 10.0 0.00 0.00 0.00 46 990.3
20260831001803 78 75 4.0 10.0 0.00 0.00 0.00 43 990.2
20260831000903 80 77 3.0 7.0 0.00 0.00 0.00 41 990.1
20260831000003 81 80 3.0 7.0 0.00 0.00 0.00 41 990.1
20260830235404 81 78 2.0 6.0 0.00 0.00 0.00 40 990.1
20260830234503 80 83 2.0 9.0 0.00 0.00 0.00 42 990.0
20260830233603 79 84 3.0 10.0 0.00 0.00 0.00 41 990.2
20260830232703 79 84 3.0 11.0 0.00 0.00 0.00 42 990.5
20260830231803 79 92 4.0 10.0 0.00 0.00 0.00 43 990.7
20260830230903 80 81 2.0 8.0 0.00 0.00 0.00 46 990.7
20260830230003 78 85 3.0 11.0 0.00 0.00 0.00 48 990.7
20260830225403 77 79 4.0 11.0 0.00 0.00 0.00 51 990.6
20260830224504 76 78 1.0 5.0 0.00 0.00 0.00 52 990.4
20260830223603 76 80 2.0 7.0 0.00 0.00 0.00 51 990.2
20260830222703 77 82 1.0 7.0 0.00 0.00 0.00 49 989.9
20260830221803 78 75 1.0 4.0 0.00 0.00 0.00 49 990.2
20260830220903 78 77 1.0 4.0 0.00 0.00 0.00 48 990.2
20260830220003 78 72 2.0 7.0 0.00 0.00 0.00 47 990.1
20260830215403 77 71 1.0 3.0 0.00 0.00 0.00 49 990.1
20260830214503 76 72 3.0 7.0 0.00 0.00 0.00 51 990.0
20260830213818 76 75 3.0 7.0 0.00 0.00 0.00 51 990.0
20260830212703 76 88 2.0 8.0 0.00 0.00 0.00 50 989.9
20260830211803 76 87 3.0 11.0 0.00 0.00 0.00 49 990.1
20260830210903 77 89 6.0 13.0 0.00 0.00 0.00 48 990.1
20260830210003 78 79 6.0 14.0 0.00 0.00 0.00 45 990.2
20260830205403 80 72 2.0 8.0 0.00 0.00 0.00 50 990.2
20260830204716 81 65 0.0 2.0 0.00 0.00 0.00 45 989.7
20260830203818 81 82 0.0 1.0 0.00 0.00 0.00 48 989.4
20260830202704 77 136 2.0 2.0 0.00 0.00 0.00 51 989.5
20260830201803 77 136 2.0 2.0 0.00 0.00 0.00 51 989.7
20260830201118 77 136 2.0 2.0 0.00 0.00 0.00 51 989.6
20260830200003 77 136 2.0 2.0 0.00 0.00 0.00 51 989.6
20260830195403 77 136 2.0 2.0 0.00 0.00 0.00 51 989.6
20260830194503 77 136 2.0 2.0 0.00 0.00 0.00 51 989.8
20260830193604 77 132 2.0 5.0 0.00 0.00 0.00 51 989.9
20260830192919 77 127 1.0 5.0 0.00 0.00 0.00 48 989.9
20260830191804 77 122 1.0 3.0 0.00 0.00 0.00 49 990.1
20260830191117 77 0 0.0 0.0 0.00 0.00 0.00 52 990.2
20260830190003 77 122 1.0 3.0 0.00 0.00 0.00 49 990.5
20260830185403 77 121 2.0 5.0 0.00 0.00 0.00 51 990.4
20260830184503 77 119 1.0 4.0 0.00 0.00 0.00 52 990.6
20260830183603 76 119 1.0 3.0 0.00 0.00 0.00 52 990.8
20260830182703 76 119 1.0 3.0 0.00 0.00 0.00 53 990.9
20260830181803 76 119 1.0 3.0 0.00 0.00 0.00 50 991.2
20260830181117 75 119 1.0 4.0 0.00 0.00 0.00 52 991.2
20260830180003 75 118 1.0 4.0 0.00 0.00 0.00 51 991.5
20260830175403 74 0 0.0 0.0 0.00 0.00 0.00 57 991.5
20260830174503 74 117 0.0 2.0 0.00 0.00 0.00 55 991.7
20260830173603 73 117 1.0 2.0 0.00 0.00 0.00 53 991.8
20260830172703 72 113 2.0 4.0 0.00 0.00 0.00 57 991.8
20260830171803 72 59 2.0 4.0 0.00 0.00 0.00 63 992.1
20260830171116 71 316 1.0 3.0 0.00 0.00 0.00 62 992.1
20260830170004 70 0 0.0 0.0 0.00 0.00 0.00 64 992.2
20260830165403 69 0 0.0 0.0 0.00 0.00 0.00 68 992.2
20260830164503 68 0 0.0 0.0 0.00 0.00 0.00 65 992.1
20260830163603 68 316 0.0 1.0 0.00 0.00 0.00 65 992.1
20260830162703 67 316 0.0 1.0 0.00 0.00 0.00 66 992.2
20260830161803 67 0 0.0 0.0 0.00 0.00 0.00 67 992.0
20260830160903 66 0 0.0 0.0 0.00 0.00 0.00 68 991.9
20260830160218 66 316 0.0 2.0 0.00 0.00 0.00 68 991.9
20260830155404 66 316 0.0 2.0 0.00 0.00 0.00 68 991.9
20260830154503 65 316 1.0 2.0 0.00 0.00 0.00 69 991.8
20260830153603 65 316 0.0 2.0 0.00 0.00 0.00 72 991.8
20260830152703 64 316 0.0 2.0 0.00 0.00 0.00 72 991.7
20260830152017 64 316 0.0 2.0 0.00 0.00 0.00 73 991.6
20260830150903 64 315 0.0 2.0 0.00 0.00 0.00 73 991.4
20260830150003 64 315 1.0 3.0 0.00 0.00 0.00 72 991.5
20260830145403 64 316 1.0 4.0 0.00 0.00 0.00 73 991.4
20260830144504 64 316 1.0 3.0 0.00 0.00 0.00 73 991.4
20260830143603 63 316 0.0 2.0 0.00 0.00 0.00 74 991.5
20260830142703 62 316 0.0 1.0 0.00 0.00 0.00 75 991.6
20260830142018 62 316 0.0 1.0 0.00 0.00 0.00 75 991.6
20260830141118 61 0 0.0 0.0 0.00 0.00 0.00 75 991.8
20260830140004 61 316 0.0 1.0 0.00 0.00 0.00 77 991.9
20260830135403 61 316 0.0 1.0 0.00 0.00 0.00 77 991.9
20260830134503 61 316 2.0 3.0 0.00 0.00 0.00 77 991.7
20260830133817 61 316 1.0 3.0 0.00 0.00 0.00 77 991.7
20260830132703 60 317 1.0 4.0 0.00 0.00 0.00 77 991.7
20260830131803 60 0 0.0 0.0 0.00 0.00 0.00 77 991.5
20260830130903 60 0 0.0 0.0 0.00 0.00 0.00 76 991.5
20260830130003 60 0 0.0 0.0 0.00 0.00 0.00 76 991.3
20260830125618 60 0 0.0 0.0 0.00 0.00 0.00 76 991.3
20260830124717 60 0 0.0 0.0 0.00 0.00 0.00 74 991.2
20260830123817 60 317 0.0 1.0 0.00 0.00 0.00 74 991.0
20260830122704 60 317 0.0 1.0 0.00 0.00 0.00 73 990.9
20260830121803 61 317 0.0 2.0 0.00 0.00 0.00 73 990.8
20260830120903 61 317 1.0 3.0 0.00 0.00 0.00 73 990.5
20260830120218 61 0 0.0 0.0 0.00 0.00 0.00 72 990.5
20260830115403 61 317 0.0 2.0 0.00 0.00 0.00 71 990.6
20260830114503 62 317 1.0 2.0 0.00 0.00 0.00 71 990.4
20260830113604 62 317 1.0 3.0 0.00 0.00 0.00 70 990.5
20260830112704 63 317 2.0 3.0 0.00 0.00 0.00 70 990.3
20260830111804 63 317 1.0 3.0 0.00 0.00 0.00 69 990.3
20260830111116 63 318 1.0 3.0 0.00 0.00 0.00 68 990.4
20260830110003 63 0 0.0 0.0 0.00 0.00 0.00 68 990.3
20260830105403 63 321 0.0 3.0 0.00 0.00 0.00 67 990.2
20260830104503 63 321 2.0 5.0 0.00 0.00 0.00 66 990.3
20260830103603 64 320 2.0 3.0 0.00 0.00 0.00 66 990.3
20260830102703 64 320 1.0 4.0 0.00 0.00 0.00 65 990.2
20260830101803 62 67 0.0 1.0 0.00 0.00 0.00 73 990.1
20260830100904 61 67 0.0 1.0 0.00 0.00 0.00 73 990.2
20260830100217 62 73 0.0 1.0 0.00 0.00 0.00 73 990.1
20260830095617 61 79 0.0 1.0 0.00 0.00 0.00 73 990.1
20260830094503 62 0 0.0 0.0 0.00 0.00 0.00 72 990.2
20260830093603 62 0 0.0 0.0 0.00 0.00 0.00 71 990.4
20260830092703 62 0 0.0 0.0 0.00 0.00 0.00 71 990.4
20260830092016 62 0 0.0 0.0 0.00 0.00 0.00 71 990.5
20260830091117 64 103 0.0 1.0 0.00 0.00 0.00 70 990.4
20260830090219 66 0 0.0 0.0 0.00 0.00 0.00 64 990.1
20260830085403 67 0 0.0 0.0 0.00 0.00 0.00 58 990.3
20260830084503 68 151 0.0 2.0 0.00 0.00 0.00 56 990.4
20260830083603 68 168 0.0 2.0 0.00 0.00 0.00 56 990.3
20260830082703 68 204 0.0 3.0 0.00 0.00 0.00 55 990.3
20260830081803 68 179 0.0 3.0 0.00 0.00 0.00 55 990.2
20260830080903 68 202 0.0 5.0 0.00 0.00 0.00 56 990.2
20260830080003 68 194 0.0 3.0 0.00 0.00 0.00 58 990.1
20260830075404 68 154 0.0 1.0 0.00 0.00 0.00 58 990.0
20260830074717 69 0 0.0 0.0 0.00 0.00 0.00 54 989.8
20260830073817 70 0 0.0 0.0 0.00 0.00 0.00 53 989.6
20260830072703 69 147 0.0 2.0 0.00 0.00 0.00 55 989.7
20260830072017 69 0 0.0 0.0 0.00 0.00 0.00 56 989.8
20260830070903 69 0 0.0 0.0 0.00 0.00 0.00 55 989.7
20260830070003 70 0 0.0 0.0 0.00 0.00 0.00 57 989.8
20260830065403 70 0 0.0 0.0 0.00 0.00 0.00 53 989.7
20260830064504 71 66 0.0 4.0 0.00 0.00 0.00 52 989.7
20260830063603 70 67 1.0 4.0 0.00 0.00 0.00 53 989.8
20260830062703 71 69 0.0 3.0 0.00 0.00 0.00 53 989.6
20260830061803 71 67 1.0 4.0 0.00 0.00 0.00 52 989.7
20260830060904 70 0 0.0 0.0 0.00 0.00 0.00 51 989.7
20260830060006 70 83 0.0 1.0 0.00 0.00 0.00 54 989.9
20260830055403 70 0 0.0 0.0 0.00 0.00 0.00 52 989.8
20260830054503 71 69 0.0 2.0 0.00 0.00 0.00 52 990.0
20260830053604 71 0 0.0 0.0 0.00 0.00 0.00 50 990.0
20260830052703 72 0 0.0 0.0 0.00 0.00 0.00 51 990.3
20260830051803 72 74 0.0 1.0 0.00 0.00 0.00 49 990.2
20260830050903 73 73 2.0 6.0 0.00 0.00 0.00 48 990.2
20260830050003 73 75 2.0 5.0 0.00 0.00 0.00 47 990.3
20260830045403 72 76 2.0 5.0 0.00 0.00 0.00 48 990.3
20260830044503 72 72 2.0 7.0 0.00 0.00 0.00 49 990.2
20260830043603 70 60 0.0 1.0 0.00 0.00 0.00 50 990.2
20260830042919 70 0 0.0 0.0 0.00 0.00 0.00 52 990.5
20260830042016 70 77 0.0 3.0 0.00 0.00 0.00 52 990.3
20260830040903 72 303 3.0 7.0 0.00 0.00 0.00 48 990.4
20260830040003 73 302 1.0 4.0 0.00 0.00 0.00 48 990.3
20260830035403 73 302 2.0 7.0 0.00 0.00 0.00 46 990.3
20260830034503 73 286 2.0 7.0 0.00 0.00 0.00 46 990.0
20260830033603 74 285 3.0 8.0 0.00 0.00 0.00 45 989.8
20260830032703 74 301 5.0 10.0 0.00 0.00 0.00 45 989.9
20260830032018 73 309 6.0 13.0 0.00 0.00 0.00 46 989.8
20260830030903 72 311 3.0 10.0 0.00 0.00 0.00 50 989.5
20260830030003 72 303 1.0 3.0 0.00 0.00 0.00 51 989.6
20260830025403 73 303 2.0 3.0 0.00 0.00 0.00 51 989.6
20260830024503 74 303 0.0 2.0 0.00 0.00 0.00 49 989.4
20260830023603 74 303 1.0 3.0 0.00 0.00 0.00 47 989.4
20260830022704 75 299 1.0 8.0 0.00 0.00 0.00 44 989.3
20260830021804 76 305 4.0 8.0 0.00 0.00 0.00 44 989.2
20260830020904 76 318 6.0 12.0 0.00 0.00 0.00 43 989.0
20260830020003 74 314 5.0 11.0 0.00 0.00 0.00 45 989.0
20260830015618 74 310 4.0 11.0 0.00 0.00 0.00 46 989.0
20260830014503 75 304 2.0 4.0 0.00 0.00 0.00 47 989.0
20260830013603 76 304 1.0 3.0 0.00 0.00 0.00 45 989.0
20260830012703 77 307 2.0 4.0 0.00 0.00 0.00 42 989.0
20260830011803 78 307 2.0 7.0 0.00 0.00 0.00 41 989.0
20260830010903 79 315 5.0 10.0 0.00 0.00 0.00 39 989.0